[[{"header":{"parameterUnit":"m.s-1","parameterCategory":1,"la1":30.2991,"la2":30.254,"lo1":-89.0895,"lo2":-89.0444,"dy":0.0017,"dx":0.0017,"nx":28,"ny":28,"refTime":"2023-10-29T21:00:00:Z","depth":0,"parameterNumber":2,"parameterNumberName":"U-component_of_WINDS"},"data":[0,0,0,0,0,0,0,0,0,0,0,0,0,0,0,0,0,0,0,0,0,0,0,0,0,0,0,0,0,0,0,0,0,0,0,0,0,0,0,0,0,0,0,0,0,0,0,0,0,0,0,0,0,0,0,0,0,0,0.3546,0.3546,0,0.3548,0.3548,0.3548,0.3553,0.3553,0.3554,0.3554,0.3555,0.3555,0.3555,0,0,0,0,0,0,0,0,0,0,0,0,0,0.3547,0.3547,0.3546,0.3546,0.3546,0.3548,0.3548,0.3548,0.3553,0.3553,0.3554,0.3554,0.3555,0.3555,0.3555,0,0,0,0,0,0,0,0,0,0,0,0,0,0.3547,0.3547,0.3546,0.3549,0.3549,0.3548,0.3548,0.3548,0.3553,0.3553,0.3554,0.3554,0.3555,0.3555,0.3555,0.355,0,0,0.3554,0.3554,0,0,0,0,0,0,0,0,0.3547,0.3547,0.3549,0.3549,0.3549,0.3551,0.3549,0.3549,0.3553,0.3552,0.3554,0.3554,0.3553,0.3553,0.3553,0.355,0.355,0.3554,0.3554,0.3554,0.3554,0,0,0,0,0,0,0,0.3547,0.3547,0.3547,0.3549,0.3549,0.355,0.355,0.3549,0.3551,0.3552,0.3552,0.3552,0.3553,0.3553,0.3553,0.355,0.3554,0.3554,0.3554,0.3554,0.3544,0.3543,0,0,0,0,0,0,0.3547,0.3547,0.3547,0.3547,0.3549,0.355,0.355,0.355,0.3552,0.3552,0.3552,0.3553,0.3553,0.3553,0.3553,0.3548,0.3554,0.3554,0.3554,0.3544,0.3544,0.3543,0,0,0,0,0,0,0.3547,0.3547,0.3547,0.3547,0.3547,0.355,0.3549,0.355,0.355,0.3552,0.3552,0.3552,0.3554,0.3553,0.3551,0.3548,0.3554,0.3554,0.3544,0.3544,0.3543,0.3537,0,0,0,0,0,0,0.3547,0.3547,0.3545,0.3547,0.3547,0.3545,0.3549,0.355,0.355,0.355,0.3551,0.3552,0.3554,0.3551,0.3551,0.3548,0.3554,0.3544,0.3544,0.3544,0.3538,0.3537,0.3536,0,0,0,0,0,0.3547,0.3544,0.3545,0.3545,0.3546,0.3544,0.3544,0.3547,0.3549,0.3548,0.3549,0.3552,0.3549,0.3551,0.3551,0.3548,0.3545,0.3544,0.3544,0.3538,0.3537,0.3536,0,0,0,0,0,0,0.3541,0.3544,0.3546,0.3543,0.3543,0.3545,0.3543,0.3546,0.3545,0.3546,0.3549,0.3549,0.3546,0.3547,0.3549,0.3543,0.3547,0.3546,0.3543,0.3542,0.3541,0.3541,0.3554,0,0,0,0,0,0.354,0.3539,0.3541,0.3538,0.3539,0.3541,0.3541,0.3542,0.3543,0.3543,0.3544,0.3544,0.3544,0.3543,0.3542,0.3538,0.3538,0.3536,0.3535,0.3534,0.3534,0.3531,0.353,0.3542,0.3542,0.3542,0,0,0.3536,0.3538,0.3537,0.3537,0.3538,0.3537,0.3541,0.354,0.3539,0.3543,0.3541,0.3541,0.3542,0.3538,0.3537,0.3539,0.3531,0.3534,0.3533,0.3533,0.3531,0.353,0.3529,0.3542,0.3542,0.3542,0,0,0.353,0.3531,0.3529,0.3529,0.353,0.3532,0.3531,0.3533,0.3533,0.3531,0.3534,0.3533,0.3531,0.3531,0.3531,0.3524,0.3526,0.3524,0.3519,0.3517,0.3516,0.3515,0.3512,0.3511,0.3523,0.3523,0.3523,0,0.3526,0.3524,0.3527,0.3525,0.3525,0.3529,0.3527,0.3527,0.3527,0.3527,0.3529,0.3527,0.3528,0.3524,0.3522,0.3522,0.3521,0.3524,0.3516,0.3515,0.3514,0.3511,0.351,0.3523,0.3523,0.3523,0.3523,0,0.3519,0.3518,0.3516,0.3516,0.3516,0.3514,0.3516,0.3515,0.3517,0.3518,0.3516,0.3516,0.3516,0.3515,0.3517,0.3512,0.3513,0.3515,0.3519,0.3513,0.351,0.3509,0.3522,0.3522,0.3523,0.3523,0,0,0.3509,0.3511,0.351,0.351,0.3511,0.351,0.3508,0.3507,0.3507,0.3507,0.3505,0.3503,0.3505,0.3505,0.3507,0.3505,0.3499,0.3507,0.3508,0.3505,0.3492,0.349,0.3489,0.35,0.35,0.35,0.3492,0,0.3502,0.3499,0.3501,0.3497,0.3496,0.35,0.3498,0.3498,0.3499,0.3498,0.3499,0.3498,0.3501,0.3501,0.3499,0.35,0.3496,0.35,0.3498,0.3498,0.3497,0.3488,0.3486,0.3478,0.3491,0.3491,0.3491,0,0.3494,0.3494,0.349,0.3491,0.3491,0.3489,0.3488,0.3487,0.3488,0.3488,0.3488,0.349,0.3488,0.3492,0.3488,0.3491,0.349,0.349,0.349,0.349,0.3494,0.3487,0.3476,0.3475,0.349,0.349,0.349,0,0.3487,0.3485,0.3483,0.3483,0.3484,0.3483,0.3483,0.3484,0.3483,0.3483,0.3482,0.3481,0.3481,0.348,0.3481,0.3484,0.3477,0.3482,0.3478,0.3478,0.3476,0.3476,0.3465,0.3476,0.3476,0.3476,0.3476,0,0.3479,0.3476,0.3479,0.3478,0.3475,0.3477,0.3474,0.3475,0.3475,0.3474,0.3477,0.3475,0.3478,0.3476,0.3477,0.3474,0.3474,0.3474,0.3474,0.3474,0.3473,0.3473,0.3473,0.3476,0.3476,0.3476,0.3476,0,0.347,0.3472,0.3469,0.3471,0.3471,0.3469,0.347,0.3468,0.3469,0.3467,0.3467,0.3468,0.3467,0.3468,0.3467,0.3468,0.3463,0.3464,0.3463,0.3463,0.3459,0.3459,0.3447,0.3445,0.3458,0.3458,0.3457,0,0.3465,0.3463,0.3464,0.3463,0.3463,0.3462,0.3461,0.3464,0.3463,0.3463,0.3461,0.346,0.3459,0.3456,0.3456,0.3455,0.3456,0.3452,0.3456,0.3455,0.3455,0.3455,0.3455,0.3451,0.3451,0.345,0.345,0,0.3455,0.3456,0.3455,0.3455,0.3454,0.3453,0.3453,0.3452,0.3455,0.3454,0.3452,0.3451,0.3449,0.3448,0.3446,0.3446,0.3449,0.3449,0.3448,0.3447,0.3446,0.3446,0.346,0.3449,0.3449,0.3449,0.345,0.345,0.3448,0.3446,0.3446,0.3445,0.3445,0.3445,0.3443,0.3444,0.3443,0.3442,0.3443,0.3441,0.3441,0.344,0.3439,0.3437,0.3439,0.3438,0.3437,0.3437,0.3436,0.3447,0.3437,0.3437,0.3437,0.3437,0.3437,0,0.3438,0.3438,0.3437,0.3437,0.3436,0.3438,0.3438,0.3437,0.3435,0.3434,0.3433,0.3431,0.3429,0.343,0.3428,0.3427,0.3428,0.3426,0.3426,0.3426,0.3435,0.3436,0.3425,0.3425,0.3425,0.3425,0.3425,0.3425,0.3432,0.3429,0.3431,0.3427,0.3428,0.3426,0.3425,0.3425,0.3425,0.3422,0.3421,0.3421,0.3421,0.342,0.3418,0.3418,0.3417,0.3415,0.3416,0.3424,0.3425,0.3426,0.3427,0.3415,0.3415,0.3407,0.3407,0.3407]},{"header":{"parameterUnit":"m.s-1","parameterCategory":1,"la1":30.2991,"la2":30.254,"lo1":-89.0895,"lo2":-89.0444,"dy":0.0017,"dx":0.0017,"nx":28,"ny":28,"refTime":"2023-10-29T21:00:00:Z","depth":0,"parameterNumber":3,"parameterNumberName":"V-component_of_WINDS"},"data":[0,0,0,0,0,0,0,0,0,0,0,0,0,0,0,0,0,0,0,0,0,0,0,0,0,0,0,0,0,0,0,0,0,0,0,0,0,0,0,0,0,0,0,0,0,0,0,0,0,0,0,0,0,0,0,0,0,0,-1.0886,-1.0886,0,-1.0931,-1.0931,-1.0932,-1.0944,-1.0943,-1.0943,-1.0943,-1.0989,-1.099,-1.0992,0,0,0,0,0,0,0,0,0,0,0,0,0,-1.081,-1.0811,-1.0886,-1.0886,-1.0887,-1.093,-1.0931,-1.0932,-1.0944,-1.0943,-1.0943,-1.0943,-1.0988,-1.099,-1.0992,0,0,0,0,0,0,0,0,0,0,0,0,0,-1.0848,-1.0812,-1.0885,-1.0898,-1.09,-1.093,-1.0931,-1.0932,-1.0944,-1.0943,-1.0943,-1.0943,-1.0988,-1.099,-1.0992,-1.1013,0,0,-1.0999,-1.1,0,0,0,0,0,0,0,0,-1.0845,-1.085,-1.0896,-1.0897,-1.0899,-1.0931,-1.0921,-1.0959,-1.0944,-1.0927,-1.0943,-1.0943,-1.097,-1.0973,-1.0983,-1.1015,-1.1017,-1.0999,-1.1,-1.1001,-1.1002,0,0,0,0,0,0,0,-1.0843,-1.0849,-1.0903,-1.0896,-1.0898,-1.0901,-1.0906,-1.0928,-1.095,-1.0928,-1.0929,-1.0935,-1.0971,-1.0981,-1.0984,-1.1018,-1.0999,-1.1001,-1.1002,-1.1003,-1.1071,-1.1071,0,0,0,0,0,0,-1.0838,-1.0846,-1.0902,-1.0905,-1.0871,-1.0903,-1.0909,-1.0921,-1.095,-1.0954,-1.0935,-1.0935,-1.0977,-1.0981,-1.0986,-1.1013,-1.1001,-1.1003,-1.1004,-1.107,-1.1071,-1.1072,0,0,0,0,0,0,-1.0836,-1.0843,-1.09,-1.0876,-1.0883,-1.0905,-1.0919,-1.0922,-1.0932,-1.0955,-1.0959,-1.0941,-1.0977,-1.0982,-1.1006,-1.1015,-1.1004,-1.1006,-1.107,-1.1071,-1.1071,-1.1067,0,0,0,0,0,0,-1.0834,-1.0842,-1.0851,-1.0876,-1.0885,-1.092,-1.0919,-1.0923,-1.0936,-1.0937,-1.0962,-1.0965,-1.0977,-1.1003,-1.1009,-1.1017,-1.1008,-1.1069,-1.107,-1.1071,-1.1067,-1.1068,-1.1069,0,0,0,0,0,-1.0832,-1.0848,-1.0851,-1.0858,-1.0895,-1.0921,-1.0926,-1.0939,-1.0937,-1.0945,-1.096,-1.0965,-1.1013,-1.1005,-1.1012,-1.1021,-1.1069,-1.107,-1.1071,-1.1066,-1.1068,-1.1069,0,0,0,0,0,0,-1.0823,-1.0851,-1.0855,-1.088,-1.0898,-1.0923,-1.0934,-1.094,-1.0958,-1.0958,-1.0974,-1.0979,-1.1002,-1.1014,-1.1005,-1.1044,-1.1041,-1.1043,-1.1035,-1.1036,-1.1037,-1.1034,-1.101,0,0,0,0,0,-1.0823,-1.0842,-1.0866,-1.0885,-1.0894,-1.0912,-1.0924,-1.0932,-1.0952,-1.0959,-1.0975,-1.0994,-1.1013,-1.1025,-1.1044,-1.1068,-1.1074,-1.1078,-1.1079,-1.108,-1.1082,-1.1096,-1.1098,-1.1075,-1.1075,-1.1075,0,0,-1.0826,-1.0843,-1.0854,-1.0884,-1.0899,-1.0917,-1.0919,-1.0938,-1.0952,-1.0962,-1.0986,-1.0998,-1.102,-1.1044,-1.1055,-1.1055,-1.1089,-1.1081,-1.1082,-1.1083,-1.1097,-1.1099,-1.1101,-1.1076,-1.1076,-1.1076,0,0,-1.0839,-1.0854,-1.0872,-1.0887,-1.091,-1.0922,-1.0926,-1.095,-1.0959,-1.0983,-1.0991,-1.1008,-1.1041,-1.1056,-1.1068,-1.1087,-1.1092,-1.1093,-1.1098,-1.1111,-1.1113,-1.1115,-1.1122,-1.1124,-1.1095,-1.1095,-1.1095,0,-1.0839,-1.0867,-1.0881,-1.09,-1.0913,-1.0923,-1.0942,-1.0955,-1.0983,-1.0992,-1.099,-1.1032,-1.1047,-1.1075,-1.108,-1.1089,-1.1095,-1.109,-1.1112,-1.1114,-1.1115,-1.1123,-1.1125,-1.1095,-1.1095,-1.1095,-1.1095,0,-1.0866,-1.0885,-1.0897,-1.0924,-1.0938,-1.0957,-1.0974,-1.0986,-1.0994,-1.1006,-1.1031,-1.1049,-1.1072,-1.1079,-1.1087,-1.1109,-1.1107,-1.1109,-1.1106,-1.1117,-1.1124,-1.1127,-1.1095,-1.1095,-1.1095,-1.1095,0,0,-1.0875,-1.0909,-1.0913,-1.0926,-1.0951,-1.0967,-1.0986,-1.1009,-1.102,-1.1038,-1.1055,-1.1082,-1.1084,-1.1097,-1.1106,-1.1118,-1.1133,-1.1118,-1.1119,-1.1121,-1.1159,-1.1158,-1.1161,-1.1136,-1.1137,-1.1137,-1.1157,0,-1.0892,-1.0927,-1.094,-1.0969,-1.0987,-1.0997,-1.1014,-1.1031,-1.1043,-1.1061,-1.1074,-1.1093,-1.1094,-1.1102,-1.1114,-1.1128,-1.1141,-1.1127,-1.1152,-1.1153,-1.1147,-1.1164,-1.1164,-1.1181,-1.116,-1.116,-1.1161,0,-1.0916,-1.0935,-1.0966,-1.099,-1.0998,-1.1013,-1.1035,-1.1051,-1.1072,-1.1079,-1.1095,-1.1103,-1.1124,-1.112,-1.1148,-1.1139,-1.115,-1.1158,-1.1159,-1.1163,-1.1158,-1.1168,-1.1187,-1.119,-1.1165,-1.1165,-1.1164,0,-1.092,-1.0954,-1.0977,-1.0987,-1.1015,-1.1025,-1.1037,-1.1057,-1.107,-1.1089,-1.1098,-1.1119,-1.1131,-1.1147,-1.1161,-1.1157,-1.1189,-1.1186,-1.1196,-1.1196,-1.1203,-1.1202,-1.1224,-1.1209,-1.1209,-1.1209,-1.1209,0,-1.0938,-1.0956,-1.0979,-1.0993,-1.1014,-1.1029,-1.1049,-1.1062,-1.1079,-1.1096,-1.1106,-1.1121,-1.1138,-1.1156,-1.1167,-1.1189,-1.1194,-1.1202,-1.1204,-1.1201,-1.12,-1.1209,-1.1208,-1.121,-1.1209,-1.1209,-1.1209,0,-1.0946,-1.0962,-1.0988,-1.1012,-1.1019,-1.1033,-1.1055,-1.1069,-1.1081,-1.1102,-1.1108,-1.1127,-1.1149,-1.1164,-1.1192,-1.1199,-1.1223,-1.1226,-1.1216,-1.1218,-1.1228,-1.1227,-1.1256,-1.1261,-1.1242,-1.1242,-1.1242,0,-1.0957,-1.0971,-1.0998,-1.101,-1.1022,-1.1041,-1.1055,-1.107,-1.1083,-1.1107,-1.1118,-1.1141,-1.1159,-1.1193,-1.1209,-1.123,-1.1234,-1.1243,-1.1237,-1.1233,-1.1235,-1.1234,-1.1235,-1.1244,-1.1244,-1.1244,-1.1244,0,-1.0974,-1.0981,-1.1,-1.1022,-1.1038,-1.1056,-1.1074,-1.1083,-1.1101,-1.1116,-1.1138,-1.1152,-1.118,-1.1202,-1.1225,-1.1238,-1.1244,-1.1245,-1.1249,-1.1246,-1.124,-1.1244,-1.1219,-1.1245,-1.1245,-1.1245,-1.1245,-1.1245,-1.0984,-1.0998,-1.1019,-1.104,-1.1055,-1.1071,-1.1086,-1.11,-1.1119,-1.1143,-1.1151,-1.1174,-1.1194,-1.1225,-1.1238,-1.1256,-1.1256,-1.1261,-1.1262,-1.1263,-1.1264,-1.1237,-1.126,-1.126,-1.126,-1.126,-1.126,0,-1.1002,-1.1016,-1.1035,-1.106,-1.1077,-1.1081,-1.1102,-1.1115,-1.1135,-1.1153,-1.1172,-1.1197,-1.1218,-1.1237,-1.1259,-1.127,-1.1273,-1.1275,-1.1275,-1.1278,-1.1262,-1.1257,-1.1272,-1.1272,-1.1272,-1.1272,-1.1272,-1.1272,-1.1014,-1.1037,-1.1047,-1.1078,-1.1091,-1.1114,-1.1125,-1.1141,-1.1155,-1.1184,-1.1201,-1.1213,-1.1232,-1.1255,-1.1275,-1.128,-1.1288,-1.1289,-1.1295,-1.128,-1.1279,-1.1277,-1.1273,-1.129,-1.129,-1.1308,-1.1309,-1.1309]}]]